GW6523 Weather Reports


time (UTC)temp
C
wind
direction
speed
KPH
gust
KPH
rain 1hr
cm
rain 24hr
cm
rain mn
cm
humidity
%
barometer
mb
20260505140520 16 221 3.2 9.7 0.00 0.13 0.13 78 995.8
20260505140508 17 216 4.8 9.7 0.00 0.13 0.13 78 995.8
20260505125020 15 178 3.2 4.8 0.00 0.13 0.13 88 996.4
20260505125008 15 223 3.2 4.8 0.00 0.13 0.13 88 996.4
20260505124520 15 178 1.6 4.8 0.00 0.13 0.13 89 996.5
20260505124508 15 193 1.6 4.8 0.00 0.13 0.13 89 996.5
20260505124019 15 234 1.6 4.8 0.00 0.13 0.13 89 996.4
20260505123533 14 161 1.6 3.2 0.00 0.13 0.13 89 996.4
20260505123508 14 178 1.6 3.2 0.00 0.13 0.13 89 996.4
20260505123021 14 178 1.6 3.2 0.00 0.13 0.13 89 996.3
20260505123008 14 223 1.6 3.2 0.00 0.13 0.13 89 996.3
20260505122508 14 197 1.6 3.2 0.00 0.13 0.13 90 996.4
20260505122020 14 223 1.6 3.2 0.00 0.13 0.13 90 996.4
20260505122008 14 250 1.6 3.2 0.00 0.13 0.13 90 996.4
20260505121520 14 223 1.6 4.8 0.00 0.13 0.13 90 996.4
20260505121019 14 187 1.6 4.8 0.00 0.13 0.13 90 996.3
20260505121009 14 193 1.6 4.8 0.00 0.13 0.13 90 996.3
20260505120519 14 197 3.2 8.0 0.00 0.13 0.13 90 996.2
20260505120508 14 165 3.2 8.0 0.00 0.13 0.13 90 996.2
20260505120054 14 216 3.2 9.7 0.00 0.13 0.13 90 996.3
20260505120011 14 206 3.2 9.7 0.00 0.13 0.13 90 996.3
20260505115521 14 206 4.8 9.7 0.03 0.13 0.13 90 996.3
20260505115508 14 191 4.8 9.7 0.03 0.13 0.13 90 996.3
20260505115007 14 206 3.2 6.4 0.03 0.13 0.13 90 996.5
20260505114519 14 163 3.2 6.4 0.03 0.13 0.13 90 996.5
20260505114508 14 178 3.2 6.4 0.03 0.13 0.13 90 996.5
20260505114008 14 206 3.2 6.4 0.03 0.13 0.13 90 996.5
20260505113519 14 223 3.2 6.4 0.03 0.13 0.13 90 996.5
20260505113507 14 215 3.2 6.4 0.03 0.13 0.13 90 996.5
20260505113020 14 188 4.8 6.4 0.03 0.13 0.13 92 996.5
20260505113009 14 169 3.2 6.4 0.03 0.13 0.13 90 996.5
20260505112509 14 232 3.2 4.8 0.03 0.13 0.13 89 996.4
20260505112031 14 218 3.2 4.8 0.03 0.13 0.13 89 996.5
20260505112008 14 190 3.2 4.8 0.03 0.13 0.13 89 996.5
20260505111542 14 228 3.2 4.8 0.05 0.13 0.13 89 996.3
20260505111508 14 231 3.2 4.8 0.05 0.13 0.13 89 996.3
20260505111019 14 223 3.2 4.8 0.05 0.13 0.13 88 996.2
20260505111008 14 227 3.2 4.8 0.05 0.13 0.13 88 996.2
20260505110508 14 228 3.2 4.8 0.08 0.13 0.13 88 996.1
20260505102020 15 314 1.6 4.8 0.10 0.10 0.10 82 996.8
20260505102010 15 342 1.6 4.8 0.08 0.08 0.08 82 996.8
20260505101519 16 1 1.6 6.4 0.08 0.08 0.08 81 996.8
20260505101508 16 9 1.6 6.4 0.08 0.08 0.08 81 996.8
20260505101007 16 328 3.2 6.4 0.08 0.08 0.08 80 996.8
20260505100519 16 302 3.2 9.7 0.05 0.05 0.05 78 996.8
20260505100508 16 321 3.2 9.7 0.05 0.05 0.05 78 996.8
20260505100023 17 324 4.8 11.3 0.03 0.03 0.03 76 996.8
20260505100019 17 321 3.2 11.3 0.03 0.03 0.03 76 996.8
20260505095519 17 269 4.8 12.9 0.00 0.00 0.00 73 996.8
20260505095509 17 323 4.8 12.9 0.00 0.00 0.00 73 996.8
20260505095007 17 269 6.4 12.9 0.00 0.00 0.00 68 996.7
20260505094519 17 350 3.2 9.7 0.00 0.00 0.00 66 996.7
20260505094508 17 336 3.2 6.4 0.00 0.00 0.00 66 996.7
20260505094040 17 342 3.2 4.8 0.00 0.00 0.00 65 996.5
20260505093530 17 295 1.6 4.8 0.00 0.00 0.00 65 996.3
20260505093008 17 340 1.6 3.2 0.00 0.00 0.00 64 996.1
20260505092519 17 234 1.6 3.2 0.00 0.00 0.00 64 996.0
20260505092514 17 250 1.6 3.2 0.00 0.00 0.00 64 996.0
20260505092019 17 295 1.6 4.8 0.00 0.00 0.00 63 995.8
20260505091520 17 245 1.6 6.4 0.00 0.00 0.00 62 995.6
20260505091031 17 178 3.2 6.4 0.00 0.00 0.00 62 995.4
20260505091009 17 213 3.2 6.4 0.00 0.00 0.00 62 995.4
20260505090520 17 223 3.2 8.0 0.00 0.00 0.00 62 995.3
20260505090021 17 201 3.2 8.0 0.00 0.00 0.00 62 995.2
20260505090008 17 213 3.2 8.0 0.00 0.00 0.00 62 995.2
20260505085519 18 240 3.2 9.7 0.00 0.00 0.00 62 995.2
20260505085019 18 217 4.8 9.7 0.00 0.00 0.00 62 995.0
20260505085008 18 215 4.8 9.7 0.00 0.00 0.00 62 995.0
20260505084523 18 228 3.2 8.0 0.00 0.00 0.00 61 995.1
20260505084519 18 238 3.2 8.0 0.00 0.00 0.00 61 995.1
20260505084024 18 269 3.2 8.0 0.00 0.00 0.00 60 995.0
20260505084006 18 245 3.2 8.0 0.00 0.00 0.00 60 995.0
20260505083534 18 194 4.8 6.4 0.00 0.00 0.00 60 994.9
20260505083519 18 223 3.2 6.4 0.00 0.00 0.00 60 994.9
20260505083023 18 212 3.2 6.4 0.00 0.00 0.00 61 994.8
20260505083019 18 295 3.2 6.4 0.00 0.00 0.00 61 994.8
20260505082521 18 193 3.2 8.0 0.00 0.00 0.00 61 994.7
20260505082509 18 161 3.2 8.0 0.00 0.00 0.00 61 994.7
20260505082019 18 269 4.8 11.3 0.00 0.00 0.00 60 994.5
20260505082009 18 157 4.8 11.3 0.00 0.00 0.00 60 994.5
20260505081519 18 234 3.2 11.3 0.00 0.00 0.00 60 994.4
20260505081509 18 248 3.2 11.3 0.00 0.00 0.00 60 994.4
20260505081019 18 240 4.8 11.3 0.00 0.00 0.00 59 994.2
20260505081008 18 243 4.8 11.3 0.00 0.00 0.00 60 994.2
20260505080519 18 178 4.8 9.7 0.00 0.00 0.00 60 994.2
20260505080508 18 214 4.8 9.7 0.00 0.00 0.00 60 994.2
20260505080019 18 231 4.8 9.7 0.00 0.00 0.00 60 994.1
20260505080008 18 236 4.8 9.7 0.00 0.00 0.00 60 994.1
20260505075508 18 223 4.8 9.7 0.00 0.00 0.00 59 994.2
20260505075020 18 214 4.8 9.7 0.00 0.00 0.00 59 994.2
20260505075007 18 197 4.8 9.7 0.00 0.00 0.00 59 994.2
20260505074519 18 212 3.2 12.9 0.00 0.00 0.00 61 994.3
20260505074509 18 223 3.2 12.9 0.00 0.00 0.00 61 994.3
20260505074020 18 238 4.8 12.9 0.00 0.00 0.00 59 994.2
20260505074008 18 269 6.4 12.9 0.00 0.00 0.00 59 994.2
20260505073519 18 238 4.8 11.3 0.00 0.00 0.00 59 994.2
20260505073510 18 217 4.8 11.3 0.00 0.00 0.00 60 994.2
20260505073020 18 206 4.8 9.7 0.00 0.00 0.00 59 994.0
20260505073008 18 183 4.8 9.7 0.00 0.00 0.00 59 994.0
20260505072519 18 223 4.8 9.7 0.00 0.00 0.00 60 994.1
20260505072508 18 219 4.8 9.7 0.00 0.00 0.00 60 994.1
20260505072019 18 219 4.8 9.7 0.00 0.00 0.00 60 993.9
20260505072008 18 164 4.8 9.7 0.00 0.00 0.00 60 993.9
20260505071531 18 202 4.8 11.3 0.00 0.00 0.00 60 994.0
20260505071507 18 233 4.8 11.3 0.00 0.00 0.00 60 994.0
20260505071019 18 232 4.8 11.3 0.00 0.00 0.00 59 994.0
20260505071007 18 220 4.8 11.3 0.00 0.00 0.00 59 994.0
20260505070521 18 197 4.8 11.3 0.00 0.00 0.00 60 994.1
20260505070508 18 215 4.8 11.3 0.00 0.00 0.00 60 994.1
20260505070019 18 228 4.8 11.3 0.00 0.00 0.00 59 994.2
20260505070008 18 202 4.8 11.3 0.00 0.00 0.00 59 994.2
20260505065550 18 269 3.2 6.4 0.00 0.00 0.00 59 994.2
20260505065031 18 243 4.8 9.7 0.00 0.00 0.00 59 994.2
20260505065009 18 257 4.8 9.7 0.00 0.00 0.00 59 994.2
20260505064519 18 202 6.4 11.3 0.00 0.00 0.00 59 994.2
20260505064508 18 178 6.4 11.3 0.00 0.00 0.00 59 994.2
20260505064030 18 245 4.8 11.3 0.00 0.00 0.00 60 994.2
20260505063521 18 220 4.8 9.7 0.00 0.00 0.00 60 994.3
20260505063508 18 216 4.8 9.7 0.00 0.00 0.00 60 994.3
20260505063019 18 213 4.8 12.9 0.00 0.00 0.00 60 994.2
20260505063008 18 178 3.2 12.9 0.00 0.00 0.00 60 994.2
20260505062530 18 223 4.8 8.0 0.00 0.00 0.00 60 994.2
20260505062507 18 252 4.8 8.0 0.00 0.00 0.00 60 994.2
20260505062020 18 223 3.2 8.0 0.00 0.00 0.00 61 994.2
20260505061519 18 226 4.8 8.0 0.00 0.00 0.00 59 994.1
20260505061508 18 221 3.2 8.0 0.00 0.00 0.00 59 994.1
20260505061019 18 221 3.2 8.0 0.00 0.00 0.00 59 994.1
20260505061010 18 201 4.8 8.0 0.00 0.00 0.00 59 994.1
20260505060524 18 206 4.8 8.0 0.00 0.00 0.00 59 994.1
20260505060510 18 223 4.8 8.0 0.00 0.00 0.00 59 994.1
20260505060022 18 210 4.8 8.0 0.00 0.00 0.00 59 994.0
20260505060018 18 217 4.8 8.0 0.00 0.00 0.00 59 994.0
20260505055519 18 215 4.8 8.0 0.00 0.00 0.00 58 993.9
20260505055508 18 210 4.8 8.0 0.00 0.00 0.00 58 993.9
20260505055020 18 229 4.8 9.7 0.00 0.00 0.00 59 993.8
20260505055008 18 237 4.8 9.7 0.00 0.00 0.00 59 993.8
20260505054530 18 234 4.8 9.7 0.00 0.00 0.00 59 993.8
20260505054019 18 206 4.8 11.3 0.00 0.00 0.00 59 993.7
20260505054008 18 223 4.8 11.3 0.00 0.00 0.00 59 993.7
20260505053519 18 215 4.8 11.3 0.00 0.00 0.00 59 993.7
20260505053508 18 209 6.4 11.3 0.00 0.00 0.00 59 993.7
20260505053020 18 211 4.8 9.7 0.00 0.00 0.00 59 993.7
20260505053008 18 217 4.8 9.7 0.00 0.00 0.00 59 993.7
20260505052506 18 191 4.8 8.0 0.00 0.00 0.00 59 993.7
20260505052019 18 223 4.8 8.0 0.00 0.00 0.00 59 993.7
20260505052009 18 230 4.8 8.0 0.00 0.00 0.00 59 993.7
20260505051519 18 217 3.2 6.4 0.00 0.00 0.00 59 993.8
20260505051508 18 213 3.2 6.4 0.00 0.00 0.00 60 993.8
20260505051019 18 206 4.8 6.4 0.00 0.00 0.00 59 993.8
20260505051007 18 214 4.8 6.4 0.00 0.00 0.00 59 993.8
20260505050529 18 220 4.8 6.4 0.00 0.00 0.00 59 993.8
20260505041519 19 186 4.8 8.0 0.00 0.00 0.00 59 994.3
20260505041508 19 197 4.8 8.0 0.00 0.00 0.00 59 994.3
20260505041007 19 213 3.2 6.4 0.00 0.00 0.00 60 994.3
20260505040530 19 206 3.2 9.7 0.00 0.00 0.00 60 994.3
20260505040509 19 211 3.2 9.7 0.00 0.00 0.00 60 994.3
20260505040030 18 223 4.8 9.7 0.00 0.00 0.00 60 994.4
20260505040009 18 227 4.8 9.7 0.00 0.00 0.00 60 994.4
20260505035519 18 238 3.2 6.4 0.00 0.00 0.00 61 994.4
20260505035507 18 223 3.2 6.4 0.00 0.00 0.00 61 994.4
20260505035030 18 238 3.2 6.4 0.00 0.00 0.00 60 994.3
20260505035007 18 201 3.2 6.4 0.00 0.00 0.00 60 994.3
20260505034521 18 223 4.8 6.4 0.00 0.00 0.00 60 994.3
20260505034508 18 214 4.8 6.4 0.00 0.00 0.00 60 994.3
20260505034030 19 220 3.2 6.4 0.00 0.00 0.00 61 994.4
20260505034008 19 229 3.2 6.4 0.00 0.00 0.00 61 994.4
20260505033519 19 187 3.2 4.8 0.00 0.00 0.00 60 994.4
20260505033508 19 219 3.2 4.8 0.00 0.00 0.00 60 994.4
20260505033019 19 257 3.2 4.8 0.00 0.00 0.00 60 994.3
20260505033010 19 216 3.2 4.8 0.00 0.00 0.00 60 994.3
20260505032519 19 199 3.2 6.4 0.00 0.00 0.00 60 994.4
20260505032507 19 240 3.2 6.4 0.00 0.00 0.00 60 994.4
20260505032030 19 202 3.2 6.4 0.00 0.00 0.00 60 994.3
20260505032008 19 211 3.2 6.4 0.00 0.00 0.00 60 994.3
20260505031519 19 202 3.2 4.8 0.00 0.00 0.00 60 994.3
20260505031508 19 209 3.2 4.8 0.00 0.00 0.00 60 994.3
20260505031020 19 216 3.2 6.4 0.00 0.00 0.00 60 994.2
20260505031007 19 209 3.2 6.4 0.00 0.00 0.00 60 994.2
20260505030520 19 206 3.2 6.4 0.00 0.00 0.00 60 994.2
20260505030042 19 206 3.2 6.4 0.00 0.00 0.00 60 994.2
20260505030011 19 213 3.2 6.4 0.00 0.00 0.00 60 994.2
20260505025530 19 238 3.2 8.0 0.00 0.00 0.00 59 994.0
20260505025507 19 195 3.2 8.0 0.00 0.00 0.00 59 994.0
20260505025019 19 240 4.8 8.0 0.00 0.00 0.00 59 994.0
20260505024519 19 213 3.2 6.4 0.00 0.00 0.00 60 993.9
20260505024019 19 223 3.2 6.4 0.00 0.00 0.00 60 993.9
20260505023521 20 236 3.2 6.4 0.00 0.00 0.00 60 993.9
20260505023020 20 195 3.2 6.4 0.00 0.00 0.00 59 993.8
20260505022519 20 178 3.2 4.8 0.00 0.00 0.00 59 993.7
20260505022020 20 201 3.2 4.8 0.00 0.00 0.00 59 993.6
20260505021519 20 218 3.2 4.8 0.00 0.00 0.00 59 993.6
20260505021021 20 216 3.2 4.8 0.00 0.00 0.00 58 993.5
20260505020521 20 216 3.2 6.4 0.00 0.00 0.00 59 993.4
20260505020019 20 234 3.2 6.4 0.00 0.00 0.00 59 993.3
20260505015520 20 238 3.2 4.8 0.00 0.00 0.00 58 993.2
20260505015031 20 234 3.2 6.4 0.00 0.00 0.00 58 993.0
20260505014519 20 206 3.2 4.8 0.00 0.00 0.00 57 993.0
20260505014030 20 223 3.2 6.4 0.00 0.00 0.00 57 993.0
20260505013531 20 234 3.2 6.4 0.00 0.00 0.00 57 993.0
20260505013019 20 213 3.2 6.4 0.00 0.00 0.00 57 993.0
20260505012532 20 165 3.2 6.4 0.00 0.00 0.00 57 992.9
20260505012019 20 206 1.6 6.4 0.00 0.00 0.00 58 992.9
20260505011521 21 223 3.2 6.4 0.00 0.00 0.00 57 992.9
20260505011019 21 216 3.2 6.4 0.00 0.00 0.00 56 992.9
20260505010520 21 206 3.2 4.8 0.00 0.00 0.00 57 992.9
20260505010019 21 216 3.2 4.8 0.00 0.00 0.00 56 992.8
20260505005519 21 240 3.2 4.8 0.00 0.00 0.00 56 992.8
20260505005020 21 213 3.2 4.8 0.00 0.00 0.00 56 992.8
20260505004542 21 213 3.2 4.8 0.00 0.00 0.00 56 992.8
20260505004019 21 223 3.2 6.4 0.00 0.00 0.00 56 992.8
20260505003519 21 186 3.2 8.0 0.00 0.00 0.00 55 992.8
20260505003020 21 203 3.2 8.0 0.00 0.00 0.00 55 992.9
20260505002530 22 216 3.2 8.0 0.00 0.00 0.00 55 992.9
20260505002019 22 226 4.8 8.0 0.00 0.00 0.00 54 992.9
20260505001520 22 218 3.2 6.4 0.00 0.00 0.00 54 993.0
20260505001035 22 216 4.8 6.4 0.00 0.00 0.00 52 993.0
20260505000519 22 223 3.2 8.0 0.00 0.00 0.00 53 993.0
20260505000019 22 213 4.8 8.0 0.00 0.00 0.00 52 993.1
20260504235530 22 213 3.2 8.0 0.00 0.00 0.00 52 993.2
20260504235020 22 231 3.2 9.7 0.00 0.00 0.00 53 993.2
20260504234519 22 218 4.8 8.0 0.00 0.00 0.00 52 993.2
20260504234020 22 219 3.2 4.8 0.00 0.00 0.00 51 993.3
20260504233519 22 219 3.2 6.4 0.00 0.00 0.00 50 993.5
20260504233019 22 210 3.2 6.4 0.00 0.00 0.00 50 993.6
20260504232530 23 236 3.2 9.7 0.00 0.00 0.00 50 993.7
20260504232019 23 223 3.2 9.7 0.00 0.00 0.00 49 993.7
20260504231520 23 240 3.2 8.0 0.00 0.00 0.00 50 993.7
20260504231030 23 269 3.2 9.7 0.00 0.00 0.00 48 993.8
20260504230531 23 213 4.8 9.7 0.00 0.00 0.00 49 993.9
20260504230019 23 168 4.8 9.7 0.00 0.00 0.00 48 993.9
20260504225519 23 199 3.2 11.3 0.00 0.00 0.00 48 993.9
20260504225019 23 209 4.8 11.3 0.00 0.00 0.00 47 993.9
20260504224530 23 257 4.8 12.9 0.00 0.00 0.00 47 993.9
20260504224019 23 240 6.4 12.9 0.00 0.00 0.00 46 993.9
20260504223519 23 331 3.2 12.9 0.00 0.00 0.00 47 994.0
20260504223025 23 226 6.4 12.9 0.00 0.00 0.00 46 994.0
20260504222519 23 213 4.8 11.3 0.00 0.00 0.00 47 994.0
20260504222019 24 250 4.8 11.3 0.00 0.00 0.00 46 994.1
20260504221519 24 187 4.8 9.7 0.00 0.00 0.00 46 994.1
20260504221019 24 201 4.8 17.7 0.00 0.00 0.00 46 994.0
20260504220520 24 227 6.4 17.7 0.00 0.00 0.00 46 994.0
20260504220019 24 197 6.4 11.3 0.00 0.00 0.00 45 994.0
20260504215520 24 226 4.8 11.3 0.00 0.00 0.00 47 994.1
20260504215019 24 213 6.4 12.9 0.00 0.00 0.00 46 994.1
20260504214519 25 227 4.8 12.9 0.00 0.00 0.00 48 994.1
20260504214019 25 233 6.4 16.1 0.00 0.00 0.00 49 994.0
20260504213519 25 214 6.4 16.1 0.00 0.00 0.00 48 994.0
20260504213019 24 215 4.8 14.5 0.00 0.00 0.00 49 994.0
20260504212519 24 214 4.8 14.5 0.00 0.00 0.00 51 994.1
20260504212020 24 223 3.2 9.7 0.00 0.00 0.00 48 994.2
20260504211519 24 245 3.2 9.7 0.00 0.00 0.00 49 994.3
20260504211019 24 309 3.2 9.7 0.00 0.00 0.00 50 994.4
20260504210530 24 234 3.2 16.1 0.00 0.00 0.00 50 994.4
20260504210020 24 208 8.0 16.1 0.00 0.00 0.00 49 994.5
20260504205525 24 302 3.2 6.4 0.00 0.00 0.00 54 994.4
20260504205019 24 220 1.6 9.7 0.00 0.00 0.00 51 994.4
20260504204521 24 210 4.8 9.7 0.00 0.00 0.00 52 994.4
20260504204019 24 216 4.8 9.7 0.00 0.00 0.00 49 994.5
20260504203524 24 193 3.2 6.4 0.00 0.00 0.00 53 994.5
20260504203033 23 216 1.6 8.0 0.00 0.00 0.00 54 994.6
20260504202520 23 1 3.2 8.0 0.00 0.00 0.00 52 994.7
20260504202030 23 46 3.2 4.8 0.00 0.00 0.00 55 994.8
20260504201521 23 231 1.6 6.4 0.00 0.00 0.00 54 994.9
20260504201019 23 340 3.2 6.4 0.00 0.00 0.00 54 994.9
20260504200519 23 269 1.6 8.0 0.00 0.00 0.00 53 995.1
20260504200030 23 305 3.2 8.0 0.00 0.00 0.00 53 995.2
20260504195519 23 220 3.2 8.0 0.00 0.00 0.00 51 995.3
20260504195019 23 253 1.6 6.4 0.00 0.00 0.00 55 995.4
20260504194520 24 240 1.6 8.0 0.00 0.00 0.00 55 995.4
20260504194019 24 190 3.2 8.0 0.00 0.00 0.00 54 995.5
20260504193520 24 212 3.2 8.0 0.00 0.00 0.00 53 995.6
20260504193019 24 219 4.8 9.7 0.00 0.00 0.00 56 995.6
20260504192534 24 237 4.8 9.7 0.00 0.00 0.00 54 995.6
20260504192031 23 340 4.8 9.7 0.00 0.00 0.00 55 995.7
20260504191520 23 214 6.4 9.7 0.00 0.00 0.00 56 995.7
20260504191019 23 269 3.2 6.4 0.00 0.00 0.00 58 995.9
20260504190530 23 1 3.2 8.0 0.00 0.00 0.00 58 996.0
20260504190020 22 245 3.2 14.5 0.00 0.00 0.00 59 996.0
20260504185520 22 214 4.8 14.5 0.00 0.00 0.00 61 996.0
20260504185019 22 189 3.2 6.4 0.00 0.00 0.00 62 996.1
20260504184520 22 165 1.6 8.0 0.00 0.00 0.00 60 996.2
20260504184031 22 178 3.2 8.0 0.00 0.00 0.00 62 996.2
20260504183519 22 195 3.2 6.4 0.00 0.00 0.00 61 996.3
20260504183019 21 279 1.6 8.0 0.00 0.00 0.00 59 996.3
20260504182520 21 226 3.2 8.0 0.00 0.00 0.00 60 996.2
20260504182019 21 223 3.2 9.7 0.00 0.00 0.00 61 996.2
20260504181530 21 331 3.2 9.7 0.00 0.00 0.00 61 996.0
20260504181030 21 240 3.2 8.0 0.00 0.00 0.00 63 996.0
20260504180524 21 258 3.2 14.5 0.00 0.00 0.00 62 996.0
20260504180020 21 258 1.6 16.1 0.00 0.00 0.00 63 995.9
20260504175520 20 223 4.8 16.1 0.00 0.00 0.00 61 995.8
20260504175020 20 220 8.0 14.5 0.00 0.00 0.00 61 995.8
20260504174519 20 188 6.4 14.5 0.00 0.00 0.00 63 995.9
20260504174019 20 239 6.4 14.5 0.00 0.00 0.00 62 996.0
20260504173519 20 215 8.0 16.1 0.00 0.00 0.00 63 996.0
20260504173019 19 204 4.8 9.7 0.00 0.00 0.00 64 996.1
20260504172520 19 229 3.2 9.7 0.00 0.00 0.00 65 996.1
20260504172019 19 253 4.8 11.3 0.00 0.00 0.00 64 996.1
20260504171520 19 235 6.4 11.3 0.00 0.00 0.00 64 996.1
20260504171020 19 221 6.4 12.9 0.00 0.00 0.00 63 996.0
20260504170519 19 231 4.8 12.9 0.00 0.00 0.00 65 996.0
20260504151019 18 223 3.2 6.4 0.00 0.00 0.00 65 996.7
20260504150519 18 209 3.2 4.8 0.00 0.00 0.00 64 996.7